[Iaude] MPEC M30: 2024 MJ [a=2.70,e=0.66,i=3.3,H=24.1]
    mpec at cfa.harvard.edu 
    mpec at cfa.harvard.edu
       
    Wed Jun 19 11:25:19 EDT 2024
    
    
  
M.P.E.C. 2024-M30                                 Issued 2024 June 19, 15:23 UT
     The Minor Planet Electronic Circulars contain information on unusual
         minor planets, routine data on comets and natural satellites,
         and occasional editorial announcements.  They are published
    on behalf of Division F of the International Astronomical Union by the
          Minor Planet Center, Smithsonian Astrophysical Observatory,
                          Cambridge, MA 02138, U.S.A.
			  
             Prepared using the Tamkin Foundation Computer Network
                              MPC at CFA.HARVARD.EDU
            URL https://www.minorplanetcenter.net/    ISSN 1523-6714
                                    2024 MJ                                     
Observations:
     K24M00J*1C2024 06 16.43507722 37 42.481+19 58 02.96         21.61GVEM030G96
     K24M00J 1C2024 06 16.44019622 37 39.961+19 57 10.62         21.41GVEM030G96
     K24M00J 1C2024 06 16.44532222 37 37.420+19 56 17.99         21.61GVEM030G96
     K24M00J 1C2024 06 16.45045322 37 34.864+19 55 23.99         21.00GVEM030G96
     K24M00J 1C2024 06 16.60472122 36 23.915+19 29 16.95         20.86GVEM030T12
     K24M00J 1C2024 06 16.60608122 36 23.217+19 29 03.06         21.32GVEM030T12
     K24M00J 1C2024 06 16.60734122 36 22.610+19 28 50.28         21.42GVEM030T12
     K24M00J KC2024 06 17.44444022 30 26.780+17 10 26.65         21.34GVEM030I52
     K24M00J KC2024 06 17.44700122 30 25.657+17 10 02.21         21.10GVEM030I52
     K24M00J KC2024 06 17.44956222 30 24.541+17 09 38.27         21.17GVEM030I52
     K24M00J KC2024 06 17.45212122 30 23.393+17 09 14.11         20.79GVEM030I52
     K24M00J KC2024 06 18.36523522 24 35.082+14 49 50.16         21.04GVEM030I52
     K24M00J KC2024 06 18.37038322 24 33.073+14 49 05.59         21.75GVEM030I52
     K24M00J KC2024 06 18.37295322 24 32.123+14 48 43.52         21.50GVEM030I52
Observer details:
G96 Mt. Lemmon Survey.  Observer T. Beuden.  Measurers T. Beuden, V. F.
    Carvajal, D. Fay, J. B. Fazekas, D. C. Fuls, A. R. Gibbs, A. D. Grauer, H.
    Groeller, J. K. Hogan, R. A. Kowalski, S. M. Larson, G. J. Leonard, D.
    Rankin, R. L. Seaman, F. C. Shelly, K. W. Wierzchos.  1.5-m reflector +
    10K CCD.
I52 Steward Observatory, Mt. Lemmon Station.  Observer G. J. Leonard.
    Measurers T. Beuden, V. F. Carvajal, D. Fay, J. B. Fazekas, D. C. Fuls, A.
    R. Gibbs, A. D. Grauer, H. Groeller, J. K. Hogan, R. A. Kowalski, S. M.
    Larson, G. J. Leonard, D. Rankin, R. L. Seaman, F. C. Shelly, K. W.
    Wierzchos.  1.0-m prime focus + CCD.
T12 University of Hawaii 88-inch telescope, Maunakea.  Observers J. Fairlamb,
    L. Benavitz, K. Toguchi-Tani.  Measurers R. Weryk, J. Fairlamb, Y.
    Ramanjooloo, R. Wainscoat.  2.24-m f/10.1 reflector + CCD.
Orbital elements:
2024 MJ                                                  Earth MOID = 0.0375 AU
Epoch 2024 Mar. 31.0 TT = JDT 2460400.5                 Veres                   
M 349.77146              (2000.0)            P               Q                  
n   0.22192194     Peri.   99.73267     -0.67038836     +0.74064340             
a   2.7018997      Node   128.07216     -0.70123480     -0.61254528             
e   0.6580636      Incl.    3.27840     -0.24258857     -0.27610803             
P   4.44           H   24.15          G   0.15           U   9                  
Residuals in seconds of arc
240616 G96  0.1-  0.2-    240616 T12 (0.3-  0.0 )   240617 I52  0.2-  0.2+
240616 G96  0.1+  0.2+    240616 T12  0.1-  0.0     240618 I52  0.1-  0.2-
240616 G96  0.0   0.5+    240617 I52  0.1-  0.0     240618 I52  0.2-  0.1-
240616 G96  0.2-  0.6-    240617 I52  0.1-  0.2-    240618 I52  0.5+  0.2+
240616 T12  0.1+  0.0     240617 I52  0.1+  0.1+
Ephemeris:
2024 MJ                  a,e,i = 2.70, 0.66, 3                   q = 0.9239
Date    TT    R. A. (2000) Decl.     Delta      r    Elong.  Phase     V
2024 05 20    07 13 47.8 +43 52 15   0.1402  0.9256    48.8   124.6    24.9
...
2024 06 04    03 06 51.2 +59 25 21   0.06926 0.9634    41.1   136.1    24.6
...
2024 06 12    23 24 38.8 +35 10 04   0.06848 1.0015    76.3    99.8    22.0
...
2024 06 18    22 26 47.0 +15 44 55   0.08846 1.0368   101.2    74.0    21.6
2024 06 19    22 20 47.7 +13 20 11   0.09276 1.0431   104.5    70.6    21.6
2024 06 20    22 15 24.7 +11 07 46   0.09726 1.0496   107.6    67.4    21.6
...
2024 06 26    21 51 26.0 +01 12 27   0.1270  1.0910   123.1    51.3    21.8
...
2024 07 04    21 30 26.9 -06 42 09   0.1718  1.1516   138.8    35.5    22.1
...
2024 07 19    21 03 23.4 -14 37 00   0.2709  1.2771   162.4    13.9    22.6
M. P. C. Staff               (C) Copyright 2024 MPC           M.P.E.C. 2024-M30
    
    
More information about the Iaude
mailing list